Regional Weather Roundup
Issued by NWS Cleveland, OH

Home | Current Version | Previous Version | Graphics & Text | Print | Product List | Glossary On
Versions: 1 2 3 4 5 6 7 8 9 10 11 12 13 14 15 16 17 18 19 20 21 22 23 24 25 26 27 28 29 30 31 32 33 34 35 36 37 38 39 40 41 42 43 44 45 46 47 48 49 50
062
ASUS41 KCLE 251110
RWRCLE
OHIO REGIONAL WEATHER ROUNDUP
NATIONAL WEATHER SERVICE CLEVELAND, OH
600 AM EST SUN FEB 25 2018

NOTE: "FAIR" INDICATES FEW OR NO CLOUDS BELOW 12,000 FEET WITH NO
SIGNIFICANT WEATHER AND/OR OBSTRUCTIONS TO VISIBILITY.

OHZ001>008-015>018-024>027-034-035-043-044-251200-
   NORTHWEST OHIO

CITY           SKY/WX    TMP DP  RH WIND       PRES   REMARKS
DEFIANCE       MOCLDY    45  38  76 W18G31    29.69R
FINDLAY        MOCLDY    49  41  74 W25G36    29.68R
TOLEDO EXPRESS FAIR      48  43  82 SW30G41   29.62R
TOLEDO EXEC      N/A     51  43  74 W31G40    29.62R
LIMA           MOCLDY    47  42  83 W32G41    29.73R
$$

OHZ009>014-019>023-028>033-038-089-251200-
   NORTHEAST OHIO

CITY           SKY/WX    TMP DP  RH WIND       PRES   REMARKS
CLE-HOPKINS    LGT RAIN  59  54  83 SW16      29.61R
CLE-LAKEFRONT  CLOUDY    60  52  74 S21G26    29.58R
CUY CO. ARPT   NOT AVBL
LORAIN-ELYRIA  MOCLDY    58  50  75 W18G33    29.59R
ASHTABULA      CLOUDY    54  53  97 S15G23    29.61S
AKRON-CANTON   CLOUDY    59  52  77 SW16G26   29.65R
WOOSTER        CLOUDY    58  53  84 SW18G30   29.64R
MANSFIELD      CLOUDY    57  54  89 SW21G35   29.65R
YOUNGSTOWN     CLOUDY    56  54  93 S9        29.65R
$$

OHZ042-051>053-060>062-070>072-077>081-251200-
  SOUTHWEST OHIO

CITY           SKY/WX    TMP DP  RH WIND       PRES   REMARKS
CINC-COVINGTON CLOUDY    55  49  80 W25G35    29.82R
CINC-LUNKEN    MOCLDY    58  49  72 W20G28    29.81R
HAMILTON       MOCLDY    53  46  77 W13G22    29.83R
DAYTON         CLOUDY    49  44  83 W26G35    29.79R
WRIGHT-PAT AFB CLOUDY    52  46  80 W17G32    29.77R
DAYTON GENERAL MOCLDY    52  45  77 W16G24    29.80R
WILMINGTON     CLOUDY    57  49  74 W29G39    29.77R
$$

OHZ036-037-039>041-045>050-054>059-063>069-073>076-082>088-251200-
  CENTRAL AND SOUTHEAST OHIO

CITY           SKY/WX    TMP DP  RH WIND       PRES   REMARKS
COLUMBUS       CLOUDY    59  54  83 SW13      29.71R
OSU AIRPORT    MOCLDY    59  55  87 SW15G24   29.71R
BOLTON FIELD   CLOUDY    58  54  88 SW13G20   29.72R
RICKENBACK AFB CLOUDY    57  55  92 SW12G21   29.72R
NEWARK         CLOUDY    59  53  80 SW13G24   29.71R
MARION         NOT AVBL
LANCASTER      CLOUDY    58  54  86 S12       29.73R
ZANESVILLE     FAIR      59  53  80 S14G22    29.73R
NEW PHILLY     NOT AVBL
$$




USA.gov is the U.S. government's official web portal to all federal, state and local government web resources and services.